Starlink 3517

operational
NORAD ID: 51735 Int'l Des: 2022-016 Owner: SPXS Country: US Constellation: starlink
LEOCIRCULAR

关于 Starlink 3517

正在加载描述...

实时位置

正在加载3D地球...

即将过境

高度历史

Altitude vs Time

uPlot chart will show altitude changes over time

两行轨道根数

1 51735U 22016X 25352.25044507 -.00000771 00000-0 -30327-4 0 9992
2 51735 53.2197 324.7149 0001425 82.1191 277.9963 15.08837478211271
Epoch: Dec 18, 2025 • Age: 17 hours

当前状态

高度 546.8 km
速度 7.59 km/s
星下点 -23.17°S, 135.44°W
发射日期 Feb 21, 2022
运行时间 3.8 years
类型 internet

技术详情

分类 Payload
质量 297.00 kg
干质量 275.00 kg
总质量 297.00 kg
长度 0.20 m
直径 2.80 m
跨度 9.00 m
形状 Box + pan
制造商 SPXS
平台类型 Starlink
阶段状态 In Orbit
所有者/国家 SPXS/US

大型星座

Loading constellations...